Regional Weather Roundup
Issued by NWS

Home | Current Version | Previous Version | Text Only | Print | Product List | Glossary On
Versions: 1 2 3 4 5 6 7 8 9 10 11 12 13 14 15 16 17 18 19 20 21 22 23 24 25 26 27 28 29 30 31 32 33 34 35 36 37 38 39 40 41 42 43 44 45 46 47 48 49 50
847
ASUS43 KDMX 281208
RWRIA

WEATHER ROUNDUP FOR IOWA
NATIONAL WEATHER SERVICE DES MOINES IA
700 AM CDT THU JUL 28 2016

NOTE: "FAIR" INDICATES FEW OR NO CLOUDS BELOW 12,000 FEET WITH NO
SIGNIFICANT WEATHER AND/OR OBSTRUCTIONS TO VISIBILITY.

* - THESE STATIONS ARE NOT NWS STATIONS...THUS NOT UNDER NWS
QUALITY CONTROL.  THEY ALSO DO NOT REPORT WEATHER SUCH
AS PRECIPITATION OR FOG.

IAZ001>003-012>014-020>022-031>034-043>046-281300-
   NORTHWEST IOWA

CITY           SKY/WX    TMP DP  RH WIND       PRES   REMARKS
CARROLL *      CLEAR     64  64 100 NW7       30.01R
CHEROKEE *     CLEAR     62  62 100 CALM      30.03R
DENISON *      CLEAR     64  63  94 CALM      30.01R FOG
LE MARS *      CLEAR     63  59  88 CALM      30.06R
SHELDON *      CLEAR     59  59 100 NW5       30.03R
SIOUX CITY     CLEAR     65  61  87 NW7       30.05R
6HR MIN TEMP:  65; 6HR MAX TEMP:  76;

SPENCER        CLOUDY    63  61  93 N6        30.02S
6HR MIN TEMP:  60; 6HR MAX TEMP:  67;

STORM LAKE *   CLEAR     61  61 100 W5        30.04R FOG
$$

IAZ055>058-069>071-079>083-090>094-281300-
   SOUTHWEST IOWA

CITY           SKY/WX    TMP DP  RH WIND       PRES   REMARKS
ATLANTIC *     CLEAR     66  64  94 N6        30.02R
CLARINDA *       N/A     68  68 100 MISG      30.02R
COUNCIL BLFS * CLEAR     68  66  94 N5        30.03R
CRESTON *      PTCLDY    68  66  94 N8        30.01R
HARLAN  *      CLEAR     64  64 100 CALM      30.06R
LAMONI         CLEAR     68  67  96 N5        29.97R
6HR MIN TEMP:  66; 6HR MAX TEMP:  71;

RED OAK *      MOCLDY    68  68 100 N3        30.01R
SHENANDOAH *   PTCLDY    68  68 100 N7        30.01R
$$

IAZ047>049-059>061-072>074-084-281300-
   CENTRAL IOWA

CITY           SKY/WX    TMP DP  RH WIND       PRES   REMARKS
AMES           PTCLDY    67  67 100 N6        29.96S
6HR MIN TEMP:  64; 6HR MAX TEMP:  72;

ANKENY *         N/A    N/A N/A N/A MISG        N/A
BOONE *        PTCLDY    66  64  94 N8        29.97R
CHARITON *       N/A    N/A N/A N/A MISG        N/A
DES MOINES     PTCLDY    71  66  84 N5        29.95F
6HR MIN TEMP:  70; 6HR MAX TEMP:  76;

GRINNELL*      CLEAR     65  64  96 NW5       29.96S FOG
KNOXVILLE *    CLEAR     70  66  88 N5        29.94S
MARSHALLTOWN   PTCLDY    63  63 100 NW5       29.95S
6HR MIN TEMP:  60; 6HR MAX TEMP:  68;

NEWTON *       CLEAR     68  68 100 N6        29.94F
PERRY *          N/A     65  65  99 NW3       29.98S FOG
$$

IAZ004>006-015-016-023>025-035-036-281300-
   NORTH CENTRAL IOWA

CITY           SKY/WX    TMP DP  RH WIND       PRES   REMARKS
ALGONA *       CLOUDY    64  64 100 N9        30.00R
ESTHERVILLE    CLOUDY    63  62  97 N9        30.01R
6HR MIN TEMP:  61; 6HR MAX TEMP:  65;

FORT DODGE *   CLOUDY    63  63 100 NW3       30.00R
MASON CITY     CLOUDY    66  64  93 N9        29.99R
6HR MIN TEMP:  63; 6HR MAX TEMP:  67;

FOREST CITY *  CLOUDY    63  63 100 N8        29.99R
IOWA FALLS *   MOCLDY    66  64  94 NW6       29.97F
$$

IAZ007>011-017>019-026>030-037>042-050>054-066-281300-
   NORTHEAST IOWA

CITY           SKY/WX    TMP DP  RH WIND       PRES   REMARKS
CEDAR RAPIDS   FOG       67  67 100 NW9       29.92R VSB 1
6HR MIN TEMP:  64; 6HR MAX TEMP:  68;

CHARLES CITY * CLOUDY    66  66 100 NW7       29.96R
CLINTON *      FOG       68  68 100 CALM      29.91R VSB<1/4
DECORAH *      CLOUDY    68  68 100 NW5       29.92S
DUBUQUE        SUNNY     70  66  87 CALM      29.92R
6HR MIN TEMP:  66; 6HR MAX TEMP:  70;

MONTICELLO *   SUNNY     66  66 100 CALM      29.90S FOG
OELWEIN *      CLOUDY    66  64  94 NW7       29.94S FOG
WATERLOO       CLOUDY    66  63  90 NW7       29.93R
6HR MIN TEMP:  64; 6HR MAX TEMP:  70;

$$

IAZ064-065-067-068-078-281300-
   EAST CENTRAL IOWA

CITY           SKY/WX    TMP DP  RH WIND       PRES   REMARKS
DAVENPORT      FOG       67  66  97 CALM      29.91R VSB 1/4
6HR MIN TEMP:  64; 6HR MAX TEMP:  71;

IOWA CITY      SUNNY     70  67  90 NW7       29.92R
6HR MIN TEMP:  67; 6HR MAX TEMP:  72;

MT. PLEASANT * CLEAR     71  71 100 CALM      29.93R FOG
MUSCATINE *    SUNNY     70  68  94 CALM      29.91R
QUAD CITIES    SUNNY     71  68  90 CALM      29.90R
6HR MIN TEMP:  67; 6HR MAX TEMP:  74;

$$

IAZ062-063-075>077-085>089-095>099-281300-
   SOUTHEAST IOWA

CITY           SKY/WX    TMP DP  RH WIND       PRES   REMARKS
BURLINGTON     SUNNY     70  69  97 NW5       29.91R
6HR MIN TEMP:  69; 6HR MAX TEMP:  75;

FAIRFIELD *    MOCLDY    68  68 100 NW8       29.93R
KEOKUK *       CLEAR     72  70  94 NW5       29.91R
OSKALOOSA *      N/A     68  67  97 N6        29.94S
CENTERVILLE *    N/A     68  66  94 CALM      29.96R
OTTUMWA        PTCLDY    68  67  96 NW7       29.94R FOG
6HR MIN TEMP:  64; 6HR MAX TEMP:  71;

WASHINGTON *   CLEAR     70  68  94 NW6       29.93R
$$

ABBREVIATIONS USED IN REMARKS
   TC - TEMPERATURES IN CELSIUS
  WCI - WIND CHILL INDEX
   HX - HEAT INDEX
  VSB - VISIBILITY
$$





USA.gov is the U.S. government's official web portal to all federal, state and local government web resources and services.